Miscellaneous Local Product
Issued by NWS Hastings, NE

Home | Current Version | Previous Version | Text Only | Print | Product List | Glossary On
Versions: 1 2 3 4 5 6 7 8 9 10 11 12 13 14 15 16 17 18 19 20 21 22 23 24 25 26 27 28 29 30 31 32 33 34 35 36 37 38 39 40 41 42 43 44 45 46 47 48 49 50
729
AXUS43 KGID 212302
MISGRI

GID CWA HOURLY WEATHER ROUNDUP
NATIONAL WEATHER SERVICE HASTINGS NE
500 PM CST WED FEB 21 2018

NOTE: "FAIR" INDICATES FEW OR NO CLOUDS BELOW 12,000 FEET WITH NO
SIGNIFICANT WEATHER AND/OR OBSTRUCTIONS TO VISIBILITY.

...SOUTH CENTRAL NEBRASKA...

CITY           SKY/WX    TMP DP  RH WIND       PRES   REMARKS
GRAND ISLAND   FAIR      27   8  44 E9        30.48R WCI  18
KEARNEY        FAIR      29   7  39 SE7       30.45R WCI  22
HASTINGS       PTSUNNY   27   4  37 E10G17    30.47S WCI  17
ORD            FAIR      25   8  48 SE7       30.44S WCI  17
YORK           FAIR      27   7  43 E7        30.51R WCI  19
AURORA         FAIR      26   6  41 E8        30.48S WCI  18
LEXINGTON      FAIR      28   8  42 S8        30.41S WCI  20
HOLDREGE       FAIR      29   4  34 SE10      30.42S WCI  20
HEBRON         CLOUDY    29   6  38 E8        30.51R WCI  21

...NEBRASKA PANHANDLE...

CITY           SKY/WX    TMP DP  RH WIND       PRES   REMARKS
CHADRON        FAIR      14   3  61 CALM      30.22F
ALLIANCE       FAIR      24  13  62 S14       30.20F WCI  12
SCOTTSBLUFF    FAIR      27  11  51 SE9       30.20R WCI  18
SIDNEY         FAIR      29  11  47 S15       30.20S WCI  18

...WESTERN AND NORTH CENTRAL NEBRASKA...

CITY           SKY/WX    TMP DP  RH WIND       PRES   REMARKS
VALENTINE      FAIR      26  12  55 S15       30.33F WCI  14
AINSWORTH      FAIR      22  11  63 S15       30.37S WCI   8
ONEILL         FAIR      22  10  59 S6        30.45S WCI  14
BROKEN BOW     FAIR      25  10  53 SE7       30.39F WCI  17
IMPERIAL       FAIR      26  10  50 SE10      30.31F WCI  16
NORTH PLATTE   FAIR      24   9  52 S5        30.37S WCI  18
MCCOOK         PTSUNNY   29   5  36 SE13      30.37S WCI  19

...EASTERN NEBRASKA...

CITY           SKY/WX    TMP DP  RH WIND       PRES   REMARKS
NORFOLK        FAIR      23  10  57 SE6       30.50R WCI  16
SO SIOUX CITY  FAIR      20   6  55 E6        30.58S WCI  12
TEKAMAH        FAIR      25  13  60 CALM      30.58R
COLUMBUS       FAIR      24  13  62 E6        30.54R WCI  17
ALBION         FAIR      24   8  51 SE7       30.49S WCI  15
OMAHA EPPLEY   CLOUDY    26  13  57 NE8       30.57S WCI  18
OFFUTT AFB     FAIR      26  14  60 NE8       30.56S WCI  17
MILLARD        FAIR      27  12  54 E6        30.57S WCI  20
LINCOLN        PTSUNNY   25   9  50 E10       30.57R WCI  15
NEBRASKA CITY  PTSUNNY   26  18  73 NE8       30.55S WCI  17
BEATRICE       CLOUDY    27  13  55 E9        30.53R WCI  18
FALLS CITY     CLOUDY    28  18  66 NE8       30.53S WCI  20

...NORTHERN KANSAS...

CITY           SKY/WX    TMP DP  RH WIND       PRES   REMARKS
GOODLAND       CLOUDY    27   3  35 SE13      30.27R WCI  16
HILL CITY      CLOUDY    27  -1  30 SE8       30.43R WCI  19
NORTON         CLOUDY    28  -6  22 SE8       30.40R WCI  20
PHILLIPSBURG   SUNNY     30   0  27 E6        30.45R WCI  24
SMITH CENTER   PTSUNNY   28   0  29 NE8       30.46S WCI  20
BELOIT         CLOUDY    28   3  34 CALM      30.49R
HAYS           CLOUDY    26   2  35 NE8       30.43S WCI  18
RUSSELL        CLOUDY    29   2  31 NE12      30.42F WCI  19
CONCORDIA      CLOUDY    27   8  44 E10       30.48S WCI  17
SALINA         CLOUDY    29  11  47 NE9       30.47F WCI  20
TOPEKA         CLOUDY    28  21  75 NE12      30.52R WCI  18



USA.gov is the U.S. government's official web portal to all federal, state and local government web resources and services.